This is the latest recevied weather packets stored in our database for station/object KG7MRB. If no packets are shown the sender has not sent any weather packets the latest 10 day(s).
| Time | Temp. | Humidity | Pressure | Rain* | Wind** | Luminosity | Snow |
|---|---|---|---|---|---|---|---|
| 1777673706 | 25° C | 41% | 1033.7 hPa | 0 mm | - | 602 W/m² | - |
| 1777673404 | 23.89° C | 42% | 1033.7 hPa | 0 mm | - | 613 W/m² | - |
| 1777673101 | 24.44° C | 42% | 1033.8 hPa | 0 mm | - | 600 W/m² | - |
| 1777672797 | 23.89° C | 43% | 1033.8 hPa | 0 mm | - | 575 W/m² | - |
| 1777672494 | 24.44° C | 43% | 1034 hPa | 0 mm | - | 569 W/m² | - |
| 1777672189 | 23.33° C | 44% | 1034 hPa | 0 mm | - | 539 W/m² | - |
| 1777671885 | 23.89° C | 43% | 1034.1 hPa | 0 mm | - | 508 W/m² | - |
| 1777671580 | 23.33° C | 45% | 1034.1 hPa | 0 mm | - | 588 W/m² | - |
| 1777671278 | 23.89° C | 45% | 1034 hPa | 0 mm | - | 537 W/m² | - |
| 1777670973 | 23.89° C | 45% | 1034.2 hPa | 0 mm | - | 557 W/m² | - |
| 1777670670 | 23.89° C | 49% | 1034 hPa | 0 mm | - | 536 W/m² | - |
| 1777670367 | 24.44° C | 45% | 1034.1 hPa | 0 mm | - | 526 W/m² | - |
| 1777670065 | 23.33° C | 44% | 1033.9 hPa | 0 mm | - | 572 W/m² | - |
| 1777669762 | 23.89° C | 43% | 1034 hPa | 0 mm | - | 583 W/m² | - |
| 1777669459 | 23.33° C | 45% | 1034.2 hPa | 0 mm | - | 698 W/m² | - |
| 1777669155 | 23.89° C | 43% | 1034.3 hPa | 0 mm | - | 618 W/m² | - |
| 1777668852 | 23.89° C | 44% | 1034 hPa | 0 mm | - | 579 W/m² | - |
| 1777668549 | 23.89° C | 45% | 1034 hPa | 0 mm | - | 551 W/m² | - |
| 1777668245 | 24.44° C | 42% | 1034.2 hPa | 0 mm | - | 632 W/m² | - |
| 1777667941 | 24.44° C | 43% | 1034.3 hPa | 0 mm | - | 673 W/m² | - |
| 1777667638 | 23.89° C | 44% | 1034.4 hPa | 0 mm | - | 690 W/m² | - |
| 1777667336 | 23.33° C | 44% | 1034.3 hPa | 0 mm | - | 700 W/m² | - |
| 1777667032 | 23.33° C | 47% | 1034.4 hPa | 0 mm | - | 662 W/m² | - |
| 1777666729 | 22.78° C | 44% | 1034.3 hPa | 0 mm | - | 704 W/m² | - |
| 1777666426 | 22.78° C | 43% | 1034.4 hPa | 0 mm | - | 669 W/m² | - |
* Rain latest hour (hover to see other rain measurements)
** Current wind speed in m/s (hover to see current wind gust speed)